Dewpoint
57 58 59 60 60 60 60 61 62 61 60 59 58 55 55 55 53 38 37 51 57 61 56 38 35 39 35 35 36 31 23 29 31 38 38 38 38 41 42 47 46 49 48 50 59
57 57 58 59 59 60 60 60 61 61 60 59 56 54 54 54 44 37 48 59 61 61 42 37 33 37 28 33 35 24 21 20 25 38 37 38 38 38 41 43 43 47 52 57 59
56 57 58 59 59 60 61 60 61 61 60 59 55 53 52 52 31 31 58 57 60 59 50 44 41 37 28 33 33 31 18 21 36 42 43 38 37 37 40 41 42 45 49 57 58
53 55 57 58 59 59 60 60 61 61 60 58 55 53 53 42 31 50 59 58 58 57 47 40 36 29 27 26 35 27 31 33 42 42 39 37 38 35 40 41 40 42 51 57 57
54 54 55 57 58 59 59 60 60 60 60 57 55 53 46 36 26 45 56 53 54 53 42 37 32 30 22 27 35 31 33 41 41 41 40 41 39 36 38 38 41 46 55 56 57
54 55 54 57 57 58 59 60 61 60 59 57 56 54 36 24 38 47 45 52 52 50 46 39 34 34 29 29 29 35 36 38 41 40 39 39 39 38 38 38 44 50 53 55 56
54 55 54 57 57 58 58 59 60 59 58 57 55 47 40 24 45 46 44 49 53 52 44 44 43 35 34 34 40 36 32 33 36 39 38 35 34 36 37 38 42 47 48 50 51
53 55 54 55 57 57 58 58 59 59 58 58 55 42 32 42 45 44 45 45 47 52 51 47 48 40 36 38 34 32 30 24 28 38 37 33 24 35 34 35 37 41 41 42 38
52 53 55 54 56 57 57 58 58 58 58 57 49 39 33 49 42 44 44 44 51 51 51 48 44 41 38 33 29 30 18 27 26 34 36 32 28 31 33 31 34 35 35 37 37
52 53 54 54 55 56 57 58 57 56 54 50 50 39 42 41 44 43 43 48 50 49 47 43 41 38 35 25 15 22 25 25 22 27 35 31 31 31 30 33 32 32 34 33 36
52 52 54 55 54 55 56 56 49 48 46 40 42 40 42 44 45 43 43 49 47 44 39 40 36 33 35 31 25 28 23 21 24 27 33 31 31 31 32 33 33 33 34 35 34
52 52 53 54 55 55 54 51 48 48 42 47 45 44 44 44 41 42 47 45 44 39 40 37 34 36 36 32 29 27 24 25 29 35 33 31 31 32 33 33 34 33 33 34 36
51 52 52 54 55 53 50 48 53 51 42 45 45 43 43 43 40 40 46 44 40 38 36 30 27 37 37 33 31 31 26 27 24 30 30 27 23 24 25 33 33 34 34 34 35
51 52 52 52 51 50 47 50 52 51 35 39 43 43 43 41 38 43 46 42 38 36 35 32 34 36 34 33 32 30 32 30 31 28 22 27 12 26 24 23 25 27 31 34 35
51 50 52 52 49 46 47 51 53 49 25 38 43 46 43 37 38 40 44 38 36 35 34 28 34 34 33 32 34 31 33 31 31 30 28 27 25 25 19 18 23 29 34 35 35
51 51 51 49 50 49 50 52 49 32 25 36 42 40 38 38 39 41 40 38 38 35 32 32 37 34 31 34 33 34 32 30 30 29 20 24 21 14 10 15 24 30 34 34 34
50 50 49 49 44 51 50 45 31 24 34 33 37 39 36 37 38 38 37 35 31 28 29 31 33 36 35 33 34 32 25 19 15 16 11 22 23 22 21 23 26 28 33 33 32
50 49 48 48 50 51 46 35 25 31 31 35 37 37 34 35 36 37 36 33 34 28 29 26 21 35 37 32 32 31 22 16 1 13 13 25 20 19 27 32 33 33 33 32 31
49 44 43 47 50 49 40 26 27 32 33 34 36 32 34 34 34 35 34 33 34 32 25 24 22 34 35 35 33 32 27 24 22 15 19 22 23 22 29 31 32 32 32 31 31
41 40 41 46 49 45 33 30 30 34 35 34 30 33 30 33 32 31 33 33 34 34 32 28 24 32 34 35 34 32 31 26 23 10 12 15 18 16 22 27 31 32 32 31 31
41 33 36 48 45 36 28 30 33 37 38 31 30 32 29 31 31 30 32 31 35 35 33 29 28 32 34 34 32 31 29 28 26 21 15 12 13 20 22 26 30 32 32 32 31
38 25 38 41 31 32 30 32 36 35 37 34 31 30 29 31 31 29 30 29 35 35 33 32 30 28 30 33 34 32 30 28 22 21 21 19 18 25 26 27 30 32 32 32 32
33 34 44 38 22 24 32 33 35 34 34 33 31 30 31 30 29 30 31 34 34 35 34 33 28 21 27 32 33 33 32 30 27 27 24 19 19 24 29 31 32 32 32 32 32
34 28 35 36 28 25 31 32 30 36 35 35 33 32 31 29 31 30 31 32 34 35 39 34 29 23 19 20 29 30 31 31 29 27 25 24 22 25 27 29 30 31 32 30 30
34 24 25 27 29 27 28 34 30 31 35 35 33 32 30 28 30 29 31 33 34 37 36 34 26 27 26 26 30 29 29 30 29 28 27 25 24 24 27 28 29 30 30 29 29
32 30 31 13 29 28 28 29 31 33 34 32 31 32 31 29 29 29 31 32 32 35 34 36 31 29 25 28 26 27 29 30 30 29 29 28 26 26 27 30 29 29 30 31 30
35 33 29 27 30 28 27 29 30 34 35 33 32 31 33 29 31 33 33 33 34 34 33 34 32 29 26 26 26 23 25 28 31 31 30 28 30 33 29 29 31 31 32 32 32
Lifted_Index
3 3 4 4 3 3 3 3 2 2 1 2 2 2 3 3 3 3 3 4 4 5 6 7 7 7 8 7 7 7 5 4 3 3 2 2 3 3 3 3 4 4 5 4 3
3 3 3 4 3 3 3 3 3 2 2 3 3 3 3 3 3 3 4 4 4 5 6 7 7 7 7 7 7 7 6 5 5 4 3 2 3 3 3 3 4 4 4 4 3
3 3 3 3 3 3 3 3 3 3 3 4 5 5 4 4 3 3 4 4 4 5 6 7 7 7 7 7 7 7 6 6 6 5 4 3 3 3 3 3 3 4 4 3 2
4 3 3 3 3 3 3 3 3 3 3 5 6 6 6 4 4 4 5 5 5 5 6 7 6 6 6 7 7 6 6 7 7 6 5 5 4 3 3 3 3 4 4 3 2
3 3 3 2 2 3 2 2 2 3 3 5 7 7 6 5 5 6 6 5 5 5 6 7 6 6 6 6 6 7 7 7 6 6 6 6 5 5 4 4 4 4 4 3 2
3 3 3 2 2 2 2 2 2 2 4 5 7 8 7 6 7 8 7 5 4 5 7 7 7 6 6 6 6 7 7 6 6 6 6 6 6 6 5 4 4 4 4 3 3
3 3 3 2 2 1 2 1 1 2 3 5 7 8 8 7 8 9 8 6 5 5 6 7 7 7 7 7 7 7 6 6 6 6 7 6 6 6 5 5 5 4 4 4 3
4 3 3 3 2 1 1 1 1 2 2 4 6 8 9 9 9 9 8 7 5 5 5 6 7 7 7 7 6 6 5 5 5 6 7 6 6 6 6 5 5 5 5 5 4
4 4 3 3 2 2 1 1 1 2 2 4 6 8 9 9 9 9 8 7 5 4 5 6 6 7 6 5 5 4 3 3 4 6 7 6 6 7 7 6 6 5 5 5 5
4 4 4 3 3 2 1 1 1 2 3 4 5 7 7 8 8 8 7 5 4 4 5 6 6 6 5 4 4 3 3 3 4 6 7 6 6 7 8 8 7 7 6 5 6
4 4 4 3 3 2 1 1 1 2 3 3 4 5 6 6 6 7 6 4 3 4 5 6 6 6 6 5 5 4 4 4 5 6 6 6 6 7 8 9 9 9 8 7 7
4 4 4 3 3 3 2 1 2 3 2 2 3 4 4 5 5 5 5 3 3 4 5 6 6 6 6 6 6 5 5 4 5 7 7 6 5 6 7 8 9 9 10 9 9
2 3 3 3 3 3 3 3 3 3 2 2 2 3 4 4 4 4 3 3 3 5 5 6 6 7 7 7 6 6 5 5 6 6 6 5 4 4 5 7 8 9 10 10 11
1 2 2 3 3 4 4 4 3 2 2 2 2 3 3 4 4 4 3 4 5 5 5 6 7 7 7 6 6 6 6 6 6 6 5 5 4 4 4 5 6 8 9 10 10
1 1 2 3 4 4 4 4 3 2 1 2 3 3 3 4 4 4 4 5 6 6 6 6 6 7 7 7 6 6 7 7 7 6 5 4 4 4 4 5 6 7 8 9 9
0 1 2 3 4 4 4 4 3 2 1 2 3 3 4 4 4 5 5 6 6 6 6 6 6 7 7 7 7 7 7 6 6 5 4 4 5 5 5 5 6 7 8 8 9
0 1 2 3 4 4 4 3 2 1 2 2 3 3 3 4 4 4 5 6 6 6 5 5 6 6 6 6 6 6 5 4 3 2 3 4 5 5 6 7 7 7 8 8 8
1 1 2 3 4 4 4 3 2 2 2 2 3 3 3 3 3 4 4 5 6 5 5 4 4 5 5 6 5 5 5 3 2 2 3 5 5 6 7 8 8 7 7 8 8
1 2 2 2 3 4 4 3 3 2 2 2 2 2 3 3 4 4 4 5 5 6 5 4 4 5 5 5 5 5 5 5 4 3 3 4 6 7 8 8 7 7 7 7 7
2 3 3 2 2 2 3 3 3 2 2 2 2 2 3 3 4 4 5 5 6 5 5 4 4 4 4 4 5 5 5 5 5 3 2 3 5 7 7 7 7 6 6 6 6
2 3 3 2 2 1 1 3 3 2 2 2 2 2 3 3 4 4 5 5 5 5 5 4 4 4 4 4 5 5 5 6 5 4 3 3 5 7 8 7 6 5 5 5 5
2 2 3 3 2 1 1 2 3 3 3 2 2 2 3 3 3 3 4 4 4 4 4 4 4 4 4 5 5 5 5 6 6 5 5 5 6 7 7 6 5 5 4 4 5
2 2 2 3 3 2 1 2 3 3 3 3 2 2 3 3 2 2 3 3 3 3 4 4 4 4 4 5 5 5 5 5 6 6 6 6 6 7 7 5 4 4 4 4 4
2 2 2 3 3 3 2 1 2 3 3 3 2 2 3 3 2 2 2 3 3 3 4 4 4 4 4 5 5 5 5 5 6 6 6 6 6 7 6 5 5 4 4 4 4
2 2 2 2 3 3 2 1 2 3 3 3 2 2 3 3 2 2 2 2 2 3 3 4 4 4 5 5 5 5 5 5 6 6 6 6 6 6 6 5 5 4 4 3 3
2 2 2 2 2 3 2 2 2 3 3 3 3 3 3 3 2 2 2 2 2 2 3 3 3 3 4 4 5 5 5 5 6 6 5 5 5 5 5 5 5 4 4 3 3
3 3 2 2 2 2 2 2 2 2 3 3 3 3 3 3 2 2 2 1 1 2 2 2 3 2 3 4 4 5 5 5 5 5 5 5 5 4 4 4 4 4 3 3 3